Regional Weather Roundup
Issued by NWS

Home | Current Version | Previous Version | Text Only | Print | Product List | Glossary On
Versions: 1 2 3 4 5 6 7 8 9 10 11 12 13 14 15 16 17 18 19 20 21 22 23 24 25 26 27 28 29 30 31 32 33 34 35 36 37 38 39 40 41 42 43 44 45 46 47 48 49 50
000
ASUS43 KTOP 160959
RWRKS

WEATHER ROUNDUP FOR KANSAS
NATIONAL WEATHER SERVICE GOODLAND KS
400 AM CST SAT DEC 16 2017

NOTE:  "FAIR" INDICATES FEW OR NO CLOUDS BELOW 12,000 FEET WITH NO
SIGNIFICANT WEATHER AND/OR OBSTRUCTIONS TO VISIBILITY.

KSZ001>006-013>018-027>032-041>047-161100-
NORTHWEST KANSAS

CITY           SKY/WX    TMP DP  RH WIND       PRES   REMARKS
GOODLAND       CLOUDY    31  12  45 W7        29.74F
HAYS           CLOUDY    31  19  61 SW9       29.79F
HILL CITY      CLOUDY    31  14  49 W7        29.77S
RUSSELL        CLOUDY    31  20  63 S14       29.78F WCI  21
$$

KSZ061>065-074>080-084>089-161100-
SOUTHWEST KANSAS

CITY           SKY/WX    TMP DP  RH WIND       PRES   REMARKS
DODGE CITY     CLOUDY    31  17  56 SW13      29.82F WCI  21
GARDEN CITY    CLOUDY    27  14  58 SW9       29.79F
GREAT BEND     CLOUDY    33  19  56 SW10      29.82F WCI  25
LIBERAL        CLOUDY    30  21  69 SW12      29.83F WCI  20
$$

KSZ066>073-081>083-090>101-161100-
SOUTHEAST KANSAS

CITY           SKY/WX    TMP DP  RH WIND       PRES   REMARKS
CHANUTE        CLEAR     36  23  59 S13       29.96S WCI  27
COFFEYVILLE    CLEAR     38  24  57 S14       29.99F WCI  30
HUTCHINSON     CLOUDY    30  22  72 S8        29.86F
MEDICINE LODGE   N/A     30  22  72 SE3       29.88F
NEWTON         CLOUDY    35  23  61 S13       29.88F WCI  26
PARSONS        CLEAR     35  24  64 S7        29.99F
WICHITA INTL   CLOUDY    31  23  72 S9        29.90F
WICHITA JABRA  CLEAR     37  25  61 S15       29.89F WCI  28
WICHITA MCCONL CLEAR     35  23  62 SW13      29.90S WCI  26
WINFIELD       CLEAR     38  26  62 S10       29.94F WCI  31
$$

KSZ007>012-019>026-033>040-048>060-102>105-161100-
NORTHEAST KANSAS

CITY           SKY/WX    TMP DP  RH WIND       PRES   REMARKS
CONCORDIA      CLOUDY    38  21  50 CALM      29.79S
EMPORIA        CLEAR     36  23  59 S8        29.88F
LAWRENCE       CLEAR     39  25  57 S8        29.89F
MANHATTAN      CLEAR     37  24  59 SW6       29.84F
OLATHE IND     CLEAR     38  24  57 S14       29.91F WCI  30
OLATHE EXE     CLEAR     37  24  59 S10       29.89F WCI  30
SALINA         CLEAR     34  24  67 S10       29.83F WCI  26
TOPEKA BILLARD CLEAR    N/A N/A N/A S3        29.87S
TOPEKA FORBES  CLEAR     37  25  61 S13       29.85F WCI  29
$$



USA.gov is the U.S. government's official web portal to all federal, state and local government web resources and services.